星链-32649 (STARLINK-32649)

导读

STARLINK-32649是美国SpaceX公司星链(Starlink)星座的卫星,于2024年12月13日发射入轨,属于SpaceX当年第88批星链发射任务的组成部分。星链星座旨在构建全球卫星互联网覆盖网络,提供高速低延迟通信服务,包括面向手机直连等应用拓展。该卫星入轨后将与其他数千颗星链卫星组网,推动全球无缝网络覆盖建设,截至2024年底SpaceX已累计发射超过7500颗星链卫星。

基本信息
目录编号:
62305
目录名称:
STARLINK-32649
国际标识:
2024-239E
轨道中心:
EARTH
卫星名称:
星链-32649
卫星全名:
星链-32649 (STARLINK-32649)
卫星状态:
在轨 (已飞行630 天)
发射日期:
2024-12-13 UTC
国别 :
美国 (US)
星等 :
--
轨道信息
数据来源 国际轨道数据
星历时间: 2026-09-03T21:58:36+0800
16小时前
查看轨道信息
半长轴: 6840.84km
偏心率: 0.0001288
轨道倾角: 53.158°
近地点辐角 97.274°
升交点赤经 84.542°
平近点角 262.841°
近地点: 461.821km
远地点: 463.585km
周期: 93.848分钟
每日圈数: 15.344004
详细信息
固有亮度:
5
最大亮度:
2.5
卫星平台:
Starlink V1.0
覆盖范围:
全球
运营商:
太空探索技术公司
运营商所在国:
美国
制造商(研发单位):
太空探索技术公司
制造商所在国:
美国
使用方式:
暂无
卫星简介
Starlink 计划是 SpaceX 推出的全球卫星互联网项目,通过发射低轨道卫星,为全球尤其是偏远地区提供高速、低延迟的互联网服务。自 2019 年起,Starlink 已部署数千颗卫星,旨在缩小全球数字鸿沟,推动互联网普及。该项目还为军事、航空等行业提供通信支持,带来广泛经济效益。
2D轨道图
3D轨道图
轨道高度分析图
轨道倾角分析图
轨道综合分析图
查看轨道综合分析图
交会数据列表
事件ID 空间交会对象 最接近时刻(TCA) 交会距离 交会风险概率(CRP) 交会风险指数(CRI) 操作
CDM_260904-160306-230506-448921
2026-09-04T
16:03:09+0000
0.853 km
远距离
2.842973E-5 中风险 0.64
CDM_260903-172306-230506-321022
2026-09-03T
17:23:00+0000
1.315 km
极远距离
7.339827E-6 低风险 0.52
CDM_260903-185606-230506-321022
2026-09-03T
18:56:51+0000
1.360 km
极远距离
6.577316E-6 低风险 0.51
CDM_260903-154906-230506-321021
2026-09-03T
15:49:08+0000
1.509 km
极远距离
4.650035E-6 低风险 0.48
CDM_260904-063604-742406-230523
OBJECT M (47424)
2026-09-04T
06:36:18+0000
1.846 km
极远距离
3.475996E-6 低风险 0.46
CDM_260903-203006-230506-321022
2026-09-03T
20:30:43+0000
1.662 km
极远距离
3.472896E-6 低风险 0.46
CDM_260903-141506-230506-321021
2026-09-03T
14:15:17+0000
1.836 km
极远距离
2.586452E-6 低风险 0.43
CDM_260903-220406-230506-321022
2026-09-03T
22:04:35+0000
2.145 km
极远距离
1.772201E-6 低风险 0.4
CDM_260904-230506-230506-448921
2026-09-04T
23:05:14+0000
2.053 km
极远距离
1.737239E-6 低风险 0.4
CDM_260903-124106-230506-321021
2026-09-03T
12:41:25+0000
2.214 km
极远距离
1.634947E-6 低风险 0.39